Home > Weather > Oakville > Past weeks

Flag for Canada Past Weather in Oakville, Ontario, Canada — Yesterday and Last 2 Weeks

Now
75 °F

Mild.


Feels Like: 77 °F
Forecast: 71 / 82 °F
Wind: 3 mph from Southeast

Location: Burlington Piers

Current Time: Jul 28, 2016 at 4:26:30 PM

Latest Report: Jul 28, 2016 at 4:00 PM


Visibility: N/A

Pressure: 29.87 "Hg

Humidity: 63%

Dew Point: 62 °F

Location of OakvilleLocation

Past Weather in Oakville — Graph

°F

Oakville Temperature Yesterday

Maximum temperature yesterday: 89 °F (at 5:00 PM)
Minimum temperature yesterday: 68 °F (at 9:00 PM)
Average temperature yesterday: 78 °F

High & Low Weather Summary for the Past Weeks

 TemperatureHumidityPressure
High91 °F (Jul 22, 5:00 PM)96% (Jul 24, 6:00 PM)30.28 "Hg (Jul 24, 6:00 PM)
Low60 °F (Jul 16, 8:00 AM)26% (Jul 23, 4:00 PM)29.72 "Hg (Jul 14, 6:00 PM)
Average75 °F62%29.96 "Hg
* Reported Jul 13 3:00 PM — Jul 28 3:00 PM, Oakville, Weather by CustomWeather, © 2016

Note: Actual official high and low records may vary slightly from our data, if they occured in-between our weather recording intervals... More about our weather records

Advertising

Oakville Weather History for the Previous 24 Hours

Scroll right to see more
 ConditionsComfort  
Time TempWeatherWind HumidityBarometerVisibility
3:00 PM
Thu, Jul 28
76 °FMild.1 mph61%29.88 "HgN/A
2:00 PM73 °FMild.2 mph72%29.90 "HgN/A
1:00 PM73 °FMild.10 mph72%29.91 "HgN/A
12:00 PM74 °FMild.3 mph78%29.91 "HgN/A
11:00 AM73 °FMild.2 mph80%29.92 "HgN/A
10:00 AM73 °FMild.5 mph78%29.92 "HgN/A
9:00 AM74 °FMild.1 mph69%29.93 "HgN/A
8:00 AM72 °FMild.5 mph85%29.93 "HgN/A
7:00 AM72 °FMild.2 mph85%29.91 "HgN/A
6:00 AM72 °FMild.2 mph85%29.90 "HgN/A
5:00 AM72 °FMild.1 mph85%29.89 "HgN/A
4:00 AM73 °FMild.1 mph84%29.89 "HgN/A
3:00 AM74 °FMild.No wind82%29.88 "HgN/A
2:00 AM74 °FMild.2 mph79%29.90 "HgN/A
1:00 AM72 °FMild.3 mph88%29.90 "HgN/A
12:00 AM74 °FMild.1 mph82%29.91 "HgN/A
11:00 PM
Wed, Jul 27
72 °FMild.1 mph84%29.91 "HgN/A
10:00 PM71 °FMild.2 mph87%29.92 "HgN/A
9:00 PM68 °FMild.5 mph88%29.91 "HgN/A
8:00 PM73 °FMild.13 mph75%29.90 "HgN/A
7:00 PM88 °FPleasantly warm.5 mph38%29.86 "HgN/A
6:00 PM88 °FHot.8 mph37%29.87 "HgN/A
5:00 PM89 °FHot.7 mph37%29.86 "HgN/A
4:00 PM88 °FHot.7 mph38%29.88 "HgN/A
Weather by CustomWeather, © 2016

See weather overviewHow to use our weather pages